Regional Weather Roundup
Issued by NWS

Home | Current Version | Previous Version | Graphics & Text | Print | Product List | Glossary On
Versions: 1 2 3 4 5 6 7 8 9 10 11 12 13 14 15 16 17 18 19 20 21 22 23 24 25 26 27 28 29 30 31 32 33 34 35 36 37 38 39 40 41 42 43 44 45 46 47 48 49 50
246
ASUS45 KCYS 210010
RWRWY

WYOMING REGIONAL WEATHER ROUNDUP
NATIONAL WEATHER SERVICE CHEYENNE WY
600 PM MDT SUN MAY 20 2018

NOTE:  "FAIR" INDICATES FEW OR NO CLOUDS BELOW 12,000 FEET
WITH NO SIGNIFICANT WEATHER AND/OR OBSTRUCTIONS TO VISIBILITY.

WYZ001-210100-
YELLOWSTONE NATIONAL PARK

CITY           SKY/WX    TMP DP  RH WIND       PRES   REMARKS
LK YELLOWSTONE   N/A     56  32  40 VRB3      30.09S
6HR MIN TEMP:  51; 6HR MAX TEMP:  60;

W YELLOWSTONE  NOT AVBL

$$
WYZ002>013-054>058-071-098>099-210100-
NORTHERN WYOMING

CITY           SKY/WX    TMP DP  RH WIND       PRES   REMARKS
JACKSON        FAIR      67  36  31 SW7       29.98F
CODY           FAIR      67  39  35 E5        29.97F
GREYBULL       FAIR      74  42  31 SE12      29.90F
6HR MIN TEMP:  64; 6HR MAX TEMP:  75;

WORLAND        FAIR      71  45  39 SE8       29.92F
6HR MIN TEMP:  62; 6HR MAX TEMP:  71;

SHERIDAN       FAIR      71  44  37 SE13G24   29.94F
6HR MIN TEMP:  66; 6HR MAX TEMP:  72;

BUFFALO        FAIR      67  43  41 SE14      30.00F
6HR MIN TEMP:  62; 6HR MAX TEMP:  68;

GILLETTE       FAIR      63  43  48 SE18G25   30.04F
6HR MIN TEMP:  58; 6HR MAX TEMP:  64;

NEWCASTLE      FAIR      59  30  33 SE15G21   30.10F

$$
WYZ014>020-022>026-101>103-210100-
CENTRAL WYOMING

CITY           SKY/WX    TMP DP  RH WIND       PRES   REMARKS
BIG PINEY      LGT RAIN  60  38  43 N8        30.05S
6HR MIN TEMP:  56; 6HR MAX TEMP:  66; 6HR PCP: TRACE;

PINEDALE       FAIR      61  32  33 S3        30.06S
DUBOIS         MOCLDY    59  39  47 E9        30.04S
LANDER         FAIR      63  49  60 VRB3      29.99S
6HR MIN TEMP:  55; 6HR MAX TEMP:  64;

RIVERTON       FAIR      63  46  54 E5        30.00F
6HR MIN TEMP:  54; 6HR MAX TEMP:  65;

CASPER         FAIR      65  46  50 E12       30.01F
6HR MIN TEMP:  55; 6HR MAX TEMP:  66;

DOUGLAS        FAIR      61  47  59 SE21G28   30.06F
6HR MIN TEMP:  55; 6HR MAX TEMP:  63;


$$
WYZ021-027>030-104>119-210100-
SOUTHERN WYOMING

CITY           SKY/WX    TMP DP  RH WIND       PRES   REMARKS
EVANSTON       FAIR      56  41  57 W10       30.09F
6HR MIN TEMP:  52; 6HR MAX TEMP:  64; 6HR PCP: TRACE;

KEMMERER       FAIR      54  37  54 W6        30.09F
FORT BRIDGER   MOCLDY    60  38  43 S15       30.11S
ROCK SPRINGS   FAIR      64  30  27 SW7       30.03F
DIXON          FAIR      67  35  31 SE8       30.04S
RAWLINS        FAIR      67  31  26 N7        30.04F
6HR MIN TEMP:  57; 6HR MAX TEMP:  70;

SARATOGA       CLOUDY    54  43  66 S17       30.08R
LARAMIE        PTSUNNY   46  40  79 SE22      30.12S
6HR MIN TEMP:  46; 6HR MAX TEMP:  63;

CHEYENNE       CLOUDY    50  41  71 S17       30.17R
6HR MIN TEMP:  47; 6HR MAX TEMP:  54;

TORRINGTON     FAIR      61  46  57 E13       30.08F
6HR MIN TEMP:  55; 6HR MAX TEMP:  63;

PINE BLUFFS    CLOUDY    54  41  62 S12G20    30.15R

$$




USA.gov is the U.S. government's official web portal to all federal, state and local government web resources and services.